| time (UTC) | temp C | wind direction | speed KPH | gust KPH | rain 1hr cm | rain 24hr cm | rain mn cm | humidity % | barometer mb |
| 20260505170609 | 23 | 242 | 4.8 | 4.8 | 0.00 | 0.00 | 0.00 | 54 | 1008.6 |
| 20260505170106 | 24 | 210 | 4.8 | 4.8 | 0.00 | 0.00 | 0.00 | 52 | 1008.8 |
| 20260505165601 | 23 | 166 | 4.8 | 4.8 | 0.00 | 0.00 | 0.00 | 53 | 1008.7 |
| 20260505165057 | 23 | 126 | 6.4 | 9.7 | 0.00 | 0.00 | 0.00 | 51 | 1008.9 |
| 20260505164553 | 24 | 141 | 16.1 | 20.9 | 0.00 | 0.00 | 0.00 | 51 | 1009.0 |
| 20260505164051 | 23 | 163 | 11.3 | 16.1 | 0.00 | 0.00 | 0.00 | 50 | 1009.1 |
| 20260505163549 | 23 | 177 | 6.4 | 9.7 | 0.00 | 0.00 | 0.00 | 51 | 1009.2 |
| 20260505163045 | 23 | 226 | 9.7 | 11.3 | 0.00 | 0.00 | 0.00 | 54 | 1009.5 |
| 20260505162538 | 23 | 176 | 4.8 | 8.0 | 0.00 | 0.00 | 0.00 | 54 | 1009.2 |
| 20260505162036 | 24 | 206 | 8.0 | 9.7 | 0.00 | 0.00 | 0.00 | 53 | 1009.2 |
| 20260505161532 | 23 | 229 | 4.8 | 9.7 | 0.00 | 0.00 | 0.00 | 54 | 1009.7 |
| 20260505161029 | 23 | 217 | 4.8 | 8.0 | 0.00 | 0.00 | 0.00 | 53 | 1009.2 |
| 20260505160527 | 23 | 214 | 1.6 | 3.2 | 0.00 | 0.00 | 0.00 | 56 | 1009.6 |
| 20260505153004 | 22 | 280 | 4.8 | 8.0 | 0.00 | 0.00 | 0.00 | 57 | 1010.1 |
| 20260505152501 | 21 | 226 | 1.6 | 4.8 | 0.00 | 0.00 | 0.00 | 57 | 1010.2 |
| 20260505151955 | 22 | 204 | 4.8 | 4.8 | 0.00 | 0.00 | 0.00 | 56 | 1010.1 |
| 20260505151452 | 21 | 220 | 6.4 | 8.0 | 0.00 | 0.00 | 0.00 | 58 | 1010.3 |
| 20260505150949 | 21 | 222 | 3.2 | 4.8 | 0.00 | 0.00 | 0.00 | 58 | 1010.4 |
| 20260505150446 | 20 | 223 | 4.8 | 4.8 | 0.00 | 0.00 | 0.00 | 58 | 1010.5 |
| 20260505140415 | 18 | 256 | 3.2 | 3.2 | 0.00 | 0.00 | 0.00 | 68 | 1010.3 |
| 20260505124824 | 15 | 220 | 3.2 | 3.2 | 0.00 | 0.00 | 0.00 | 79 | 1010.6 |
| 20260505124321 | 15 | 208 | 1.6 | 3.2 | 0.00 | 0.00 | 0.00 | 78 | 1010.5 |
| 20260505123817 | 15 | 221 | 1.6 | 1.6 | 0.00 | 0.00 | 0.00 | 79 | 1010.6 |
| 20260505123313 | 15 | 249 | 3.2 | 3.2 | 0.00 | 0.00 | 0.00 | 79 | 1010.6 |
| 20260505122809 | 15 | 218 | 3.2 | 3.2 | 0.00 | 0.00 | 0.00 | 78 | 1010.6 |
| 20260505122307 | 15 | 241 | 1.6 | 1.6 | 0.00 | 0.00 | 0.00 | 78 | 1010.5 |
| 20260505121803 | 15 | 229 | 4.8 | 4.8 | 0.00 | 0.00 | 0.00 | 77 | 1010.8 |
| 20260505121300 | 15 | 213 | 3.2 | 3.2 | 0.00 | 0.00 | 0.00 | 79 | 1010.8 |
| 20260505120756 | 15 | 191 | 4.8 | 4.8 | 0.00 | 0.00 | 0.00 | 81 | 1010.9 |
| 20260505120253 | 14 | 188 | 8.0 | 9.7 | 0.00 | 0.00 | 0.00 | 81 | 1010.8 |
| 20260505115751 | 13 | 272 | 6.4 | 8.0 | 0.00 | 0.00 | 0.00 | 83 | 1010.7 |
| 20260505115249 | 13 | 224 | 1.6 | 1.6 | 0.00 | 0.00 | 0.00 | 83 | 1010.5 |
| 20260505114746 | 13 | 224 | 3.2 | 4.8 | 0.00 | 0.00 | 0.00 | 83 | 1010.5 |
| 20260505114242 | 13 | 218 | 0.0 | 1.6 | 0.00 | 0.00 | 0.00 | 85 | 1010.7 |
| 20260505113739 | 13 | 197 | 1.6 | 3.2 | 0.00 | 0.00 | 0.00 | 85 | 1010.8 |
| 20260505113236 | 12 | 227 | 3.2 | 3.2 | 0.00 | 0.00 | 0.00 | 87 | 1010.8 |
| 20260505112732 | 12 | 261 | 3.2 | 4.8 | 0.00 | 0.00 | 0.00 | 88 | 1010.9 |
| 20260505112230 | 12 | 226 | 3.2 | 3.2 | 0.00 | 0.00 | 0.00 | 88 | 1010.7 |
| 20260505111729 | 12 | 253 | 4.8 | 4.8 | 0.00 | 0.00 | 0.00 | 88 | 1010.7 |
| 20260505111226 | 12 | 244 | 4.8 | 4.8 | 0.00 | 0.00 | 0.00 | 88 | 1010.5 |
| 20260505110722 | 12 | 248 | 4.8 | 4.8 | 0.00 | 0.00 | 0.00 | 87 | 1010.7 |
| 20260505110219 | 12 | 254 | 4.8 | 4.8 | 0.00 | 0.00 | 0.00 | 88 | 1010.2 |
| 20260505102155 | 11 | 227 | 3.2 | 3.2 | 0.00 | 0.00 | 0.00 | 92 | 1009.9 |
| 20260505101654 | 11 | 222 | 3.2 | 3.2 | 0.00 | 0.00 | 0.00 | 92 | 1009.7 |
| 20260505101149 | 11 | 226 | 3.2 | 3.2 | 0.00 | 0.00 | 0.00 | 92 | 1009.8 |
| 20260505100645 | 10 | 208 | 1.6 | 3.2 | 0.00 | 0.00 | 0.00 | 92 | 1009.9 |
| 20260505100143 | 10 | 241 | 1.6 | 1.6 | 0.00 | 0.00 | 0.00 | 92 | 1009.6 |
| 20260505095638 | 10 | 218 | 3.2 | 3.2 | 0.00 | 0.00 | 0.00 | 92 | 1009.7 |
| 20260505095136 | 10 | 217 | 1.6 | 1.6 | 0.00 | 0.00 | 0.00 | 91 | 1009.5 |
| 20260505094632 | 10 | 220 | 1.6 | 3.2 | 0.00 | 0.00 | 0.00 | 91 | 1009.7 |
| 20260505094128 | 10 | 233 | 1.6 | 1.6 | 0.00 | 0.00 | 0.00 | 91 | 1009.6 |
| 20260505093624 | 10 | 228 | 1.6 | 1.6 | 0.00 | 0.00 | 0.00 | 91 | 1009.7 |
| 20260505093122 | 10 | 221 | 1.6 | 1.6 | 0.00 | 0.00 | 0.00 | 91 | 1009.7 |
| 20260505092619 | 10 | 222 | 1.6 | 1.6 | 0.00 | 0.00 | 0.00 | 91 | 1009.8 |
| 20260505092118 | 10 | 238 | 1.6 | 3.2 | 0.00 | 0.00 | 0.00 | 90 | 1009.8 |
| 20260505091614 | 11 | 238 | 3.2 | 3.2 | 0.00 | 0.00 | 0.00 | 90 | 1009.7 |
| 20260505091112 | 10 | 231 | 3.2 | 3.2 | 0.00 | 0.00 | 0.00 | 90 | 1009.5 |
| 20260505090610 | 11 | 240 | 1.6 | 3.2 | 0.00 | 0.00 | 0.00 | 90 | 1009.7 |
| 20260505090108 | 11 | 224 | 4.8 | 4.8 | 0.00 | 0.00 | 0.00 | 90 | 1009.7 |
| 20260505085605 | 11 | 226 | 1.6 | 3.2 | 0.00 | 0.00 | 0.00 | 90 | 1009.6 |
| 20260505085103 | 10 | 224 | 1.6 | 1.6 | 0.00 | 0.00 | 0.00 | 90 | 1009.7 |
| 20260505084601 | 10 | 219 | 1.6 | 1.6 | 0.00 | 0.00 | 0.00 | 90 | 1009.8 |
| 20260505084059 | 11 | 217 | 0.0 | 0.0 | 0.00 | 0.00 | 0.00 | 89 | 1009.8 |
| 20260505083555 | 11 | 221 | 0.0 | 1.6 | 0.00 | 0.00 | 0.00 | 89 | 1010.0 |
| 20260505083052 | 11 | 224 | 1.6 | 3.2 | 0.00 | 0.00 | 0.00 | 88 | 1009.8 |
| 20260505082548 | 11 | 218 | 1.6 | 3.2 | 0.00 | 0.00 | 0.00 | 88 | 1009.7 |
| 20260505082045 | 11 | 248 | 3.2 | 3.2 | 0.00 | 0.00 | 0.00 | 88 | 1009.7 |
| 20260505081541 | 11 | 233 | 3.2 | 3.2 | 0.00 | 0.00 | 0.00 | 88 | 1009.6 |
| 20260505081039 | 11 | 227 | 1.6 | 3.2 | 0.00 | 0.00 | 0.00 | 88 | 1009.7 |
| 20260505080535 | 11 | 223 | 1.6 | 3.2 | 0.00 | 0.00 | 0.00 | 87 | 1009.8 |
| 20260505080032 | 11 | 250 | 4.8 | 4.8 | 0.00 | 0.00 | 0.00 | 87 | 1009.7 |
| 20260505075527 | 11 | 222 | 1.6 | 1.6 | 0.00 | 0.00 | 0.00 | 87 | 1009.8 |
| 20260505075025 | 11 | 227 | 1.6 | 1.6 | 0.00 | 0.00 | 0.00 | 87 | 1009.9 |
| 20260505074522 | 11 | 221 | 1.6 | 3.2 | 0.00 | 0.00 | 0.00 | 87 | 1009.9 |
| 20260505074019 | 11 | 217 | 3.2 | 3.2 | 0.00 | 0.00 | 0.00 | 87 | 1009.6 |
| 20260505073516 | 11 | 227 | 3.2 | 3.2 | 0.00 | 0.00 | 0.00 | 86 | 1009.5 |
| 20260505073015 | 11 | 148 | 1.6 | 3.2 | 0.00 | 0.00 | 0.00 | 86 | 1009.5 |
| 20260505072510 | 11 | 231 | 3.2 | 3.2 | 0.00 | 0.00 | 0.00 | 86 | 1009.6 |
| 20260505072006 | 11 | 224 | 1.6 | 1.6 | 0.00 | 0.00 | 0.00 | 86 | 1009.8 |
| 20260505071502 | 11 | 213 | 1.6 | 3.2 | 0.00 | 0.00 | 0.00 | 85 | 1009.9 |
| 20260505071000 | 11 | 235 | 1.6 | 1.6 | 0.00 | 0.00 | 0.00 | 85 | 1009.7 |
| 20260505070457 | 11 | 222 | 4.8 | 4.8 | 0.00 | 0.00 | 0.00 | 85 | 1009.9 |
| 20260505065952 | 11 | 226 | 3.2 | 3.2 | 0.00 | 0.00 | 0.00 | 84 | 1009.9 |
| 20260505065449 | 11 | 232 | 1.6 | 3.2 | 0.00 | 0.00 | 0.00 | 85 | 1010.0 |
| 20260505064946 | 11 | 224 | 1.6 | 1.6 | 0.00 | 0.00 | 0.00 | 84 | 1009.9 |
| 20260505064442 | 11 | 222 | 1.6 | 1.6 | 0.00 | 0.00 | 0.00 | 84 | 1010.1 |
| 20260505063941 | 11 | 224 | 1.6 | 3.2 | 0.00 | 0.00 | 0.00 | 84 | 1010.2 |
| 20260505063437 | 11 | 225 | 1.6 | 1.6 | 0.00 | 0.00 | 0.00 | 83 | 1009.9 |
| 20260505062934 | 11 | 226 | 3.2 | 3.2 | 0.00 | 0.00 | 0.00 | 83 | 1010.0 |
| 20260505062431 | 11 | 224 | 1.6 | 3.2 | 0.00 | 0.00 | 0.00 | 82 | 1009.9 |
| 20260505061928 | 11 | 223 | 0.0 | 1.6 | 0.00 | 0.00 | 0.00 | 82 | 1010.0 |
| 20260505061426 | 11 | 226 | 1.6 | 3.2 | 0.00 | 0.00 | 0.00 | 83 | 1009.9 |
| 20260505060923 | 11 | 242 | 1.6 | 3.2 | 0.00 | 0.00 | 0.00 | 82 | 1010.1 |
| 20260505060420 | 11 | 234 | 1.6 | 1.6 | 0.00 | 0.00 | 0.00 | 82 | 1010.1 |
| 20260505055916 | 11 | 221 | 0.0 | 0.0 | 0.00 | 0.00 | 0.00 | 82 | 1010.0 |
| 20260505055412 | 11 | 222 | 1.6 | 1.6 | 0.00 | 0.00 | 0.00 | 81 | 1010.4 |
| 20260505054909 | 11 | 220 | 1.6 | 3.2 | 0.00 | 0.00 | 0.00 | 81 | 1010.4 |
| 20260505054407 | 11 | 224 | 3.2 | 4.8 | 0.00 | 0.00 | 0.00 | 81 | 1010.4 |
| 20260505053905 | 11 | 234 | 4.8 | 4.8 | 0.00 | 0.00 | 0.00 | 80 | 1010.5 |
| 20260505053401 | 11 | 261 | 4.8 | 4.8 | 0.00 | 0.00 | 0.00 | 80 | 1010.4 |
| 20260505052858 | 11 | 225 | 1.6 | 1.6 | 0.00 | 0.00 | 0.00 | 80 | 1010.3 |
| 20260505052355 | 11 | 236 | 3.2 | 3.2 | 0.00 | 0.00 | 0.00 | 80 | 1010.4 |
| 20260505051852 | 11 | 232 | 3.2 | 3.2 | 0.00 | 0.00 | 0.00 | 80 | 1010.4 |
| 20260505051349 | 11 | 249 | 3.2 | 3.2 | 0.00 | 0.00 | 0.00 | 79 | 1010.4 |
| 20260505050847 | 11 | 233 | 1.6 | 1.6 | 0.00 | 0.00 | 0.00 | 79 | 1010.5 |
| 20260505050346 | 11 | 227 | 1.6 | 1.6 | 0.00 | 0.00 | 0.00 | 79 | 1010.5 |
| 20260505041313 | 11 | 220 | 3.2 | 3.2 | 0.00 | 0.00 | 0.00 | 78 | 1010.7 |
| 20260505040810 | 11 | 226 | 1.6 | 1.6 | 0.00 | 0.00 | 0.00 | 78 | 1010.8 |
| 20260505040308 | 11 | 205 | 3.2 | 4.8 | 0.00 | 0.00 | 0.00 | 77 | 1010.7 |
| 20260505035804 | 11 | 226 | 1.6 | 3.2 | 0.00 | 0.00 | 0.00 | 77 | 1010.6 |
| 20260505035300 | 11 | 217 | 1.6 | 1.6 | 0.00 | 0.00 | 0.00 | 77 | 1010.6 |
| 20260505034757 | 11 | 219 | 1.6 | 1.6 | 0.00 | 0.00 | 0.00 | 77 | 1010.8 |
| 20260505034254 | 12 | 217 | 1.6 | 3.2 | 0.00 | 0.00 | 0.00 | 76 | 1010.8 |
| 20260505033750 | 12 | 226 | 1.6 | 1.6 | 0.00 | 0.00 | 0.00 | 76 | 1010.8 |
| 20260505033248 | 12 | 220 | 1.6 | 3.2 | 0.00 | 0.00 | 0.00 | 76 | 1010.6 |
| 20260505032746 | 12 | 223 | 4.8 | 8.0 | 0.00 | 0.00 | 0.00 | 75 | 1010.6 |
| 20260505032242 | 12 | 226 | 3.2 | 3.2 | 0.00 | 0.00 | 0.00 | 75 | 1010.6 |
| 20260505031739 | 12 | 223 | 3.2 | 4.8 | 0.00 | 0.00 | 0.00 | 75 | 1010.6 |
| 20260505031235 | 12 | 252 | 3.2 | 3.2 | 0.00 | 0.00 | 0.00 | 75 | 1010.6 |
| 20260505030733 | 12 | 224 | 3.2 | 4.8 | 0.00 | 0.00 | 0.00 | 74 | 1010.6 |
| 20260505030229 | 12 | 245 | 3.2 | 3.2 | 0.00 | 0.00 | 0.00 | 74 | 1010.7 |
| 20260505025724 | 12 | 218 | 1.6 | 3.2 | 0.00 | 0.00 | 0.00 | 74 | 1010.5 |
| 20260505025223 | 12 | 227 | 1.6 | 1.6 | 0.00 | 0.00 | 0.00 | 74 | 1010.4 |
| 20260505024721 | 12 | 224 | 3.2 | 3.2 | 0.00 | 0.00 | 0.00 | 74 | 1010.9 |
| 20260505024218 | 12 | 252 | 3.2 | 3.2 | 0.00 | 0.00 | 0.00 | 74 | 1010.6 |
| 20260505023715 | 12 | 234 | 4.8 | 4.8 | 0.00 | 0.00 | 0.00 | 73 | 1010.8 |
| 20260505023212 | 12 | 238 | 3.2 | 3.2 | 0.00 | 0.00 | 0.00 | 73 | 1010.7 |
| 20260505022710 | 12 | 215 | 1.6 | 3.2 | 0.00 | 0.00 | 0.00 | 73 | 1010.8 |
| 20260505022206 | 12 | 222 | 3.2 | 3.2 | 0.00 | 0.00 | 0.00 | 73 | 1010.8 |
| 20260505021702 | 12 | 219 | 4.8 | 8.0 | 0.00 | 0.00 | 0.00 | 72 | 1010.6 |
| 20260505021154 | 12 | 241 | 4.8 | 4.8 | 0.00 | 0.00 | 0.00 | 72 | 1010.6 |
| 20260505020650 | 12 | 223 | 1.6 | 1.6 | 0.00 | 0.00 | 0.00 | 72 | 1010.8 |
| 20260505020145 | 12 | 230 | 3.2 | 3.2 | 0.00 | 0.00 | 0.00 | 71 | 1010.4 |
| 20260505015643 | 13 | 220 | 4.8 | 4.8 | 0.00 | 0.00 | 0.00 | 71 | 1010.4 |
| 20260505015139 | 13 | 189 | 1.6 | 3.2 | 0.00 | 0.00 | 0.00 | 70 | 1010.4 |
| 20260505014636 | 13 | 217 | 4.8 | 8.0 | 0.00 | 0.00 | 0.00 | 70 | 1010.6 |
| 20260505014134 | 13 | 222 | 3.2 | 4.8 | 0.00 | 0.00 | 0.00 | 70 | 1010.5 |
| 20260505013631 | 13 | 189 | 6.4 | 9.7 | 0.00 | 0.00 | 0.00 | 69 | 1010.6 |
| 20260505013128 | 13 | 157 | 6.4 | 8.0 | 0.00 | 0.00 | 0.00 | 69 | 1010.6 |
| 20260505012626 | 13 | 223 | 3.2 | 3.2 | 0.00 | 0.00 | 0.00 | 68 | 1010.3 |
| 20260505012123 | 13 | 219 | 9.7 | 11.3 | 0.00 | 0.00 | 0.00 | 68 | 1010.3 |
| 20260505011618 | 13 | 224 | 4.8 | 8.0 | 0.00 | 0.00 | 0.00 | 67 | 1010.6 |
| 20260505011116 | 13 | 205 | 6.4 | 8.0 | 0.00 | 0.00 | 0.00 | 66 | 1010.2 |
| 20260505010610 | 13 | 344 | 8.0 | 9.7 | 0.00 | 0.00 | 0.00 | 66 | 1010.1 |
| 20260505005558 | 13 | 205 | 3.2 | 3.2 | 0.00 | 0.00 | 0.00 | 65 | 1009.9 |
| 20260505005056 | 13 | 202 | 4.8 | 4.8 | 0.00 | 0.00 | 0.00 | 65 | 1009.9 |
| 20260505004553 | 13 | 229 | 9.7 | 16.1 | 0.00 | 0.00 | 0.00 | 64 | 1009.7 |
| 20260505004049 | 13 | 186 | 4.8 | 8.0 | 0.00 | 0.00 | 0.00 | 64 | 1010.0 |
| 20260505003547 | 14 | 211 | 4.8 | 4.8 | 0.00 | 0.00 | 0.00 | 63 | 1009.9 |
| 20260505003044 | 14 | 209 | 6.4 | 11.3 | 0.00 | 0.00 | 0.00 | 62 | 1009.6 |
| 20260505002543 | 14 | 253 | 8.0 | 9.7 | 0.00 | 0.00 | 0.00 | 62 | 1009.4 |
| 20260505002038 | 15 | 210 | 1.6 | 3.2 | 0.00 | 0.00 | 0.00 | 61 | 1009.6 |
| 20260505001534 | 15 | 217 | 3.2 | 3.2 | 0.00 | 0.00 | 0.00 | 61 | 1009.2 |
| 20260505001032 | 15 | 222 | 3.2 | 3.2 | 0.00 | 0.00 | 0.00 | 59 | 1009.4 |
| 20260505000529 | 15 | 256 | 4.8 | 8.0 | 0.00 | 0.00 | 0.00 | 59 | 1009.2 |
| 20260505000027 | 15 | 255 | 4.8 | 4.8 | 0.00 | 0.00 | 0.00 | 59 | 1009.1 |
| 20260504235523 | 15 | 204 | 3.2 | 4.8 | 0.00 | 0.00 | 0.00 | 57 | 1008.9 |
| 20260504235020 | 15 | 8 | 4.8 | 8.0 | 0.00 | 0.00 | 0.00 | 57 | 1008.8 |
| 20260504234517 | 15 | 233 | 4.8 | 8.0 | 0.00 | 0.00 | 0.00 | 56 | 1008.9 |
| 20260504234014 | 16 | 213 | 6.4 | 9.7 | 0.00 | 0.00 | 0.00 | 56 | 1009.0 |
| 20260504233509 | 16 | 195 | 6.4 | 9.7 | 0.00 | 0.00 | 0.00 | 56 | 1008.9 |
| 20260504233006 | 16 | 232 | 6.4 | 8.0 | 0.00 | 0.00 | 0.00 | 55 | 1008.8 |
| 20260504232503 | 16 | 207 | 8.0 | 9.7 | 0.00 | 0.00 | 0.00 | 54 | 1008.8 |
| 20260504232001 | 16 | 224 | 4.8 | 4.8 | 0.00 | 0.00 | 0.00 | 54 | 1008.8 |
| 20260504231457 | 16 | 285 | 8.0 | 12.9 | 0.00 | 0.00 | 0.00 | 53 | 1008.5 |
| 20260504230953 | 16 | 208 | 3.2 | 4.8 | 0.00 | 0.00 | 0.00 | 53 | 1008.7 |
| 20260504230450 | 17 | 248 | 4.8 | 4.8 | 0.00 | 0.00 | 0.00 | 53 | 1008.5 |
| 20260504225949 | 17 | 221 | 3.2 | 3.2 | 0.00 | 0.00 | 0.00 | 53 | 1008.4 |
| 20260504225445 | 17 | 203 | 4.8 | 8.0 | 0.00 | 0.00 | 0.00 | 52 | 1008.5 |
| 20260504224942 | 17 | 227 | 4.8 | 4.8 | 0.00 | 0.00 | 0.00 | 52 | 1008.5 |
| 20260504224439 | 17 | 213 | 6.4 | 8.0 | 0.00 | 0.00 | 0.00 | 51 | 1008.4 |
| 20260504223936 | 17 | 97 | 8.0 | 12.9 | 0.00 | 0.00 | 0.00 | 51 | 1008.3 |
| 20260504223432 | 17 | 240 | 8.0 | 11.3 | 0.00 | 0.00 | 0.00 | 50 | 1008.3 |
| 20260504222928 | 17 | 222 | 3.2 | 4.8 | 0.00 | 0.00 | 0.00 | 50 | 1008.6 |
| 20260504222426 | 17 | 218 | 4.8 | 4.8 | 0.00 | 0.00 | 0.00 | 50 | 1008.6 |
| 20260504221923 | 17 | 248 | 9.7 | 11.3 | 0.00 | 0.00 | 0.00 | 48 | 1008.4 |
| 20260504221420 | 17 | 229 | 4.8 | 8.0 | 0.00 | 0.00 | 0.00 | 47 | 1008.6 |
| 20260504220917 | 18 | 246 | 3.2 | 3.2 | 0.00 | 0.00 | 0.00 | 47 | 1008.5 |
| 20260504220414 | 18 | 256 | 9.7 | 12.9 | 0.00 | 0.00 | 0.00 | 46 | 1008.6 |
| 20260504215911 | 18 | 217 | 11.3 | 14.5 | 0.00 | 0.00 | 0.00 | 46 | 1008.5 |
| 20260504215407 | 18 | 112 | 6.4 | 11.3 | 0.00 | 0.00 | 0.00 | 45 | 1008.6 |
| 20260504214904 | 18 | 275 | 11.3 | 12.9 | 0.00 | 0.00 | 0.00 | 44 | 1008.4 |
| 20260504214400 | 18 | 266 | 8.0 | 11.3 | 0.00 | 0.00 | 0.00 | 44 | 1008.5 |
| 20260504213857 | 18 | 223 | 6.4 | 12.9 | 0.00 | 0.00 | 0.00 | 44 | 1008.4 |
| 20260504213353 | 18 | 237 | 8.0 | 11.3 | 0.00 | 0.00 | 0.00 | 44 | 1008.5 |
| 20260504212850 | 18 | 235 | 9.7 | 11.3 | 0.00 | 0.00 | 0.00 | 43 | 1008.4 |
| 20260504212346 | 19 | 229 | 8.0 | 9.7 | 0.00 | 0.00 | 0.00 | 44 | 1008.5 |
| 20260504211844 | 19 | 207 | 6.4 | 11.3 | 0.00 | 0.00 | 0.00 | 45 | 1008.0 |
| 20260504211340 | 19 | 255 | 4.8 | 4.8 | 0.00 | 0.00 | 0.00 | 45 | 1008.2 |
| 20260504210838 | 19 | 274 | 8.0 | 11.3 | 0.00 | 0.00 | 0.00 | 43 | 1008.2 |
| 20260504210335 | 19 | 201 | 8.0 | 12.9 | 0.00 | 0.00 | 0.00 | 42 | 1008.2 |
| 20260504205832 | 19 | 206 | 9.7 | 11.3 | 0.00 | 0.00 | 0.00 | 41 | 1008.2 |
| 20260504205329 | 20 | 234 | 6.4 | 8.0 | 0.00 | 0.00 | 0.00 | 41 | 1008.1 |
| 20260504204827 | 20 | 265 | 4.8 | 4.8 | 0.00 | 0.00 | 0.00 | 41 | 1008.2 |
| 20260504204326 | 20 | 220 | 0.0 | 1.6 | 0.00 | 0.00 | 0.00 | 41 | 1008.3 |
| 20260504203825 | 20 | 205 | 8.0 | 11.3 | 0.00 | 0.00 | 0.00 | 39 | 1008.4 |
| 20260504203321 | 20 | 228 | 3.2 | 8.0 | 0.00 | 0.00 | 0.00 | 39 | 1007.9 |
| 20260504202817 | 20 | 251 | 4.8 | 8.0 | 0.00 | 0.00 | 0.00 | 39 | 1008.3 |
| 20260504202315 | 20 | 160 | 14.5 | 17.7 | 0.00 | 0.00 | 0.00 | 39 | 1008.3 |
| 20260504201811 | 20 | 226 | 4.8 | 8.0 | 0.00 | 0.00 | 0.00 | 38 | 1008.2 |
| 20260504201308 | 20 | 237 | 9.7 | 11.3 | 0.00 | 0.00 | 0.00 | 39 | 1008.3 |
| 20260504200806 | 20 | 215 | 4.8 | 4.8 | 0.00 | 0.00 | 0.00 | 38 | 1008.5 |
| 20260504200302 | 21 | 207 | 3.2 | 8.0 | 0.00 | 0.00 | 0.00 | 39 | 1008.3 |
| 20260504195758 | 21 | 252 | 8.0 | 14.5 | 0.00 | 0.00 | 0.00 | 39 | 1008.3 |
| 20260504195254 | 21 | 222 | 8.0 | 12.9 | 0.00 | 0.00 | 0.00 | 38 | 1008.5 |
| 20260504194751 | 20 | 127 | 6.4 | 11.3 | 0.00 | 0.00 | 0.00 | 38 | 1008.3 |
| 20260504194247 | 20 | 213 | 4.8 | 8.0 | 0.00 | 0.00 | 0.00 | 38 | 1008.4 |
| 20260504193744 | 21 | 200 | 9.7 | 14.5 | 0.00 | 0.00 | 0.00 | 37 | 1008.4 |
| 20260504193241 | 20 | 135 | 6.4 | 11.3 | 0.00 | 0.00 | 0.00 | 37 | 1008.3 |
| 20260504192739 | 21 | 262 | 3.2 | 4.8 | 0.00 | 0.00 | 0.00 | 37 | 1008.4 |
| 20260504192237 | 21 | 205 | 9.7 | 12.9 | 0.00 | 0.00 | 0.00 | 35 | 1008.4 |
| 20260504191736 | 21 | 357 | 8.0 | 11.3 | 0.00 | 0.00 | 0.00 | 36 | 1008.4 |
| 20260504191232 | 20 | 295 | 3.2 | 4.8 | 0.00 | 0.00 | 0.00 | 37 | 1008.7 |
| 20260504190727 | 21 | 177 | 8.0 | 9.7 | 0.00 | 0.00 | 0.00 | 35 | 1008.8 |
| 20260504190224 | 21 | 183 | 4.8 | 9.7 | 0.00 | 0.00 | 0.00 | 35 | 1008.7 |
| 20260504185721 | 20 | 255 | 3.2 | 3.2 | 0.00 | 0.00 | 0.00 | 36 | 1008.7 |
| 20260504185218 | 21 | 268 | 4.8 | 8.0 | 0.00 | 0.00 | 0.00 | 33 | 1008.7 |
| 20260504184714 | 21 | 318 | 9.7 | 12.9 | 0.00 | 0.00 | 0.00 | 32 | 1008.8 |
| 20260504184210 | 21 | 224 | 4.8 | 4.8 | 0.00 | 0.00 | 0.00 | 30 | 1008.8 |
| 20260504183706 | 21 | 233 | 3.2 | 8.0 | 0.00 | 0.00 | 0.00 | 36 | 1008.7 |
| 20260504183203 | 21 | 236 | 3.2 | 4.8 | 0.00 | 0.00 | 0.00 | 31 | 1008.8 |
| 20260504182701 | 21 | 266 | 6.4 | 8.0 | 0.00 | 0.00 | 0.00 | 32 | 1008.6 |
| 20260504182158 | 21 | 254 | 8.0 | 11.3 | 0.00 | 0.00 | 0.00 | 31 | 1008.8 |
| 20260504181655 | 21 | 282 | 11.3 | 12.9 | 0.00 | 0.00 | 0.00 | 31 | 1009.0 |
| 20260504181153 | 20 | 270 | 8.0 | 9.7 | 0.00 | 0.00 | 0.00 | 33 | 1009.2 |
| 20260504180652 | 20 | 233 | 6.4 | 11.3 | 0.00 | 0.00 | 0.00 | 32 | 1009.2 |
| 20260504180150 | 20 | 257 | 11.3 | 12.9 | 0.00 | 0.00 | 0.00 | 31 | 1009.3 |
| 20260504175647 | 20 | 248 | 4.8 | 8.0 | 0.00 | 0.00 | 0.00 | 34 | 1009.2 |
| 20260504175143 | 20 | 243 | 1.6 | 3.2 | 0.00 | 0.00 | 0.00 | 33 | 1009.3 |
| 20260504174642 | 20 | 243 | 1.6 | 3.2 | 0.00 | 0.00 | 0.00 | 35 | 1009.4 |
| 20260504174138 | 20 | 276 | 6.4 | 11.3 | 0.00 | 0.00 | 0.00 | 34 | 1009.5 |
| 20260504173635 | 20 | 281 | 11.3 | 14.5 | 0.00 | 0.00 | 0.00 | 32 | 1009.7 |
| 20260504173133 | 20 | 273 | 8.0 | 9.7 | 0.00 | 0.00 | 0.00 | 31 | 1009.5 |
| 20260504172629 | 20 | 208 | 3.2 | 4.8 | 0.00 | 0.00 | 0.00 | 33 | 1009.7 |
| 20260504172126 | 20 | 251 | 8.0 | 11.3 | 0.00 | 0.00 | 0.00 | 33 | 1009.6 |
| 20260504171622 | 20 | 231 | 8.0 | 11.3 | 0.00 | 0.00 | 0.00 | 32 | 1009.6 |
| 20260504171120 | 20 | 276 | 6.4 | 9.7 | 0.00 | 0.00 | 0.00 | 34 | 1009.7 |